Precipitable_Water
1.05 1.05 0.98 0.95 0.93 0.91 0.88 0.83 0.72 0.55 0.58 0.66 0.67 0.79 0.82 0.84 0.83 0.83 0.82 0.78 0.78 0.79 0.78 0.77 0.76 0.78 0.84 0.89 0.91 0.91 0.89 0.91 0.91 0.88 0.85 0.81 0.79 0.76
1.07 1.02 0.97 0.92 0.90 0.91 0.89 0.89 0.85 0.73 0.57 0.70 0.71 0.77 0.81 0.83 0.87 0.85 0.83 0.80 0.78 0.80 0.80 0.80 0.79 0.78 0.83 0.88 0.90 0.91 0.93 0.92 0.93 0.92 0.89 0.87 0.87 0.84
1.05 0.99 0.96 0.98 0.92 0.91 0.89 0.86 0.79 0.77 0.64 0.73 0.79 0.81 0.80 0.79 0.83 0.86 0.85 0.79 0.78 0.77 0.76 0.78 0.81 0.82 0.84 0.87 0.89 0.90 0.92 0.94 0.95 0.95 0.96 0.95 0.95 0.94
1.06 0.99 1.00 1.01 0.96 0.95 0.84 0.80 0.78 0.76 0.71 0.67 0.76 0.76 0.78 0.81 0.82 0.82 0.82 0.81 0.76 0.78 0.77 0.75 0.78 0.81 0.84 0.87 0.90 0.92 0.93 0.94 0.93 0.95 0.95 0.97 0.97 0.97
1.12 1.06 1.06 1.03 0.92 0.82 0.78 0.74 0.76 0.79 0.78 0.73 0.70 0.77 0.79 0.80 0.78 0.83 0.81 0.79 0.78 0.79 0.78 0.77 0.78 0.81 0.84 0.86 0.87 0.88 0.90 0.92 0.93 0.92 0.94 0.95 0.97 0.99
1.23 1.18 1.13 0.99 0.82 0.74 0.74 0.74 0.77 0.75 0.74 0.72 0.70 0.72 0.75 0.78 0.78 0.71 0.71 0.78 0.73 0.76 0.77 0.77 0.79 0.80 0.82 0.83 0.84 0.85 0.86 0.89 0.92 0.91 0.94 0.96 0.96 0.97
1.26 1.20 1.11 1.02 0.90 0.82 0.77 0.75 0.75 0.72 0.70 0.69 0.68 0.70 0.70 0.69 0.67 0.74 0.71 0.73 0.72 0.72 0.69 0.74 0.75 0.77 0.78 0.80 0.78 0.77 0.80 0.85 0.89 0.90 0.94 0.95 0.96 0.96
1.22 1.16 1.12 1.06 0.98 0.91 0.85 0.86 0.84 0.75 0.70 0.68 0.67 0.65 0.67 0.68 0.73 0.73 0.72 0.64 0.54 0.73 0.69 0.69 0.75 0.70 0.74 0.77 0.79 0.76 0.78 0.83 0.86 0.89 0.94 0.93 0.94 0.95
1.20 1.13 0.97 0.95 0.95 0.87 0.87 0.88 0.87 0.85 0.82 0.77 0.69 0.69 0.66 0.70 0.72 0.68 0.66 0.63 0.59 0.70 0.72 0.62 0.72 0.67 0.76 0.77 0.75 0.76 0.75 0.82 0.86 0.89 0.94 0.95 0.94 0.94
1.04 0.94 0.87 0.84 0.87 0.89 0.86 0.81 0.80 0.80 0.81 0.81 0.80 0.79 0.80 0.80 0.77 0.74 0.72 0.72 0.72 0.75 0.80 0.59 0.71 0.67 0.76 0.77 0.77 0.77 0.77 0.80 0.85 0.88 0.91 0.92 0.93 0.94
1.12 1.03 0.92 0.86 0.84 0.86 0.82 0.77 0.73 0.78 0.87 0.89 0.90 0.89 0.88 0.87 0.85 0.79 0.70 0.67 0.61 0.65 0.75 0.69 0.67 0.64 0.68 0.67 0.72 0.78 0.79 0.81 0.84 0.86 0.88 0.89 0.90 0.90
1.13 1.07 1.03 0.95 0.89 0.84 0.80 0.77 0.71 0.71 0.82 0.85 0.86 0.87 0.90 0.90 0.87 0.85 0.81 0.69 0.66 0.60 0.69 0.66 0.66 0.66 0.57 0.67 0.70 0.74 0.77 0.80 0.81 0.82 0.85 0.86 0.86 0.84
0.99 0.91 0.96 0.93 0.85 0.87 0.90 0.87 0.83 0.87 0.85 0.86 0.85 0.87 0.89 0.88 0.85 0.87 0.85 0.79 0.68 0.66 0.75 0.75 0.70 0.70 0.66 0.64 0.68 0.73 0.76 0.77 0.79 0.81 0.83 0.85 0.85 0.86
0.91 0.90 0.87 0.86 0.88 0.89 0.89 0.88 0.88 0.89 0.85 0.83 0.84 0.84 0.82 0.83 0.83 0.84 0.85 0.84 0.85 0.79 0.83 0.84 0.75 0.72 0.67 0.65 0.64 0.72 0.74 0.78 0.77 0.75 0.79 0.84 0.84 0.83
0.88 0.87 0.87 0.86 0.87 0.87 0.87 0.87 0.87 0.87 0.84 0.81 0.79 0.80 0.82 0.84 0.83 0.81 0.83 0.86 0.85 0.84 0.86 0.88 0.83 0.80 0.77 0.70 0.67 0.70 0.68 0.73 0.78 0.78 0.78 0.76 0.78 0.79
0.87 0.85 0.85 0.86 0.87 0.86 0.85 0.85 0.83 0.81 0.78 0.75 0.74 0.78 0.82 0.81 0.78 0.78 0.74 0.77 0.73 0.74 0.84 0.88 0.87 0.85 0.76 0.76 0.72 0.68 0.72 0.65 0.74 0.72 0.76 0.79 0.81 0.82
0.80 0.78 0.77 0.76 0.76 0.76 0.77 0.79 0.81 0.80 0.76 0.75 0.74 0.73 0.74 0.74 0.73 0.76 0.73 0.72 0.68 0.67 0.70 0.80 0.85 0.85 0.83 0.77 0.68 0.72 0.71 0.71 0.75 0.74 0.71 0.71 0.77 0.79
0.71 0.70 0.71 0.70 0.70 0.73 0.73 0.73 0.74 0.72 0.71 0.71 0.71 0.71 0.69 0.69 0.68 0.70 0.69 0.68 0.65 0.66 0.67 0.72 0.73 0.72 0.72 0.74 0.79 0.71 0.73 0.70 0.73 0.74 0.72 0.66 0.68 0.75
0.63 0.65 0.66 0.67 0.68 0.68 0.69 0.70 0.69 0.69 0.68 0.66 0.66 0.67 0.67 0.66 0.64 0.64 0.65 0.65 0.64 0.65 0.67 0.71 0.70 0.66 0.57 0.51 0.66 0.77 0.66 0.68 0.68 0.66 0.70 0.69 0.67 0.72
0.55 0.57 0.57 0.59 0.62 0.63 0.64 0.63 0.64 0.64 0.62 0.62 0.62 0.62 0.62 0.62 0.62 0.62 0.63 0.63 0.63 0.63 0.64 0.67 0.67 0.66 0.59 0.56 0.56 0.64 0.74 0.66 0.65 0.64 0.64 0.71 0.72 0.76
0.45 0.47 0.50 0.51 0.53 0.55 0.57 0.59 0.59 0.58 0.58 0.58 0.58 0.59 0.59 0.59 0.59 0.60 0.61 0.61 0.60 0.59 0.57 0.59 0.66 0.73 0.71 0.67 0.55 0.54 0.63 0.71 0.70 0.67 0.66 0.64 0.63 0.64
0.39 0.40 0.42 0.44 0.45 0.46 0.48 0.49 0.49 0.49 0.49 0.50 0.51 0.52 0.56 0.57 0.56 0.55 0.56 0.55 0.56 0.56 0.55 0.59 0.63 0.63 0.61 0.57 0.52 0.53 0.55 0.63 0.71 0.72 0.74 0.72 0.64 0.56
0.32 0.34 0.36 0.37 0.38 0.39 0.40 0.41 0.41 0.42 0.44 0.44 0.44 0.45 0.46 0.46 0.48 0.48 0.48 0.49 0.50 0.51 0.52 0.53 0.56 0.58 0.58 0.58 0.56 0.54 0.55 0.57 0.61 0.62 0.66 0.74 0.75 0.74
Wind_Speed
27 26 24 23 21 19 18 17 16 15 14 12 11 11 10 10 10 10 12 13 14 14 15 15 15 15 15 15 15 15 15 15 15 15 15 15 15 14
28 27 26 25 23 22 20 20 18 17 15 15 13 12 12 12 12 12 13 14 15 16 16 16 16 17 17 16 16 17 17 16 16 16 16 16 16 15
29 28 27 26 25 24 23 22 21 20 18 16 15 14 14 14 14 14 15 15 16 17 17 17 18 18 18 18 18 18 18 18 18 18 18 18 17 16
31 30 29 27 27 26 25 24 24 22 21 20 18 17 16 16 16 17 17 17 18 18 19 19 19 19 19 19 20 20 20 20 20 20 20 19 19 18
32 31 30 29 27 27 26 26 25 24 23 21 20 19 18 18 18 19 19 19 20 20 21 21 21 20 21 21 21 21 22 22 22 22 22 21 21 20
33 32 31 30 29 28 27 27 26 25 24 23 22 22 21 20 20 21 21 21 22 22 22 22 22 22 22 22 22 23 24 24 24 24 23 23 22 22
34 32 32 30 30 29 28 28 28 27 26 25 24 23 23 23 23 23 23 23 23 23 23 23 23 23 23 23 24 25 26 26 25 25 25 25 24 24
35 34 33 32 31 31 31 30 30 30 29 27 26 26 26 25 25 24 25 24 24 25 24 24 25 25 26 27 28 28 28 28 27 27 26 26 26 26
36 35 34 34 33 33 32 32 32 32 31 30 29 29 28 27 26 26 26 26 26 26 26 26 27 28 29 29 30 30 31 29 28 28 27 27 27 27
37 37 36 35 35 35 34 34 33 33 33 32 32 31 30 28 28 27 27 28 28 28 28 28 29 30 31 32 33 32 31 30 30 30 29 28 29 28
38 37 38 37 37 36 36 35 35 35 35 34 34 33 32 31 31 30 30 30 30 30 30 31 30 31 31 31 31 30 29 29 30 30 30 30 30 29
40 40 39 39 38 38 38 38 38 37 37 36 35 35 35 34 33 33 33 32 32 32 30 32 32 32 31 30 29 31 32 32 32 32 31 30 30 30
41 39 39 39 39 39 39 39 38 38 37 37 37 36 35 35 35 35 35 35 35 35 34 34 34 33 33 34 32 33 33 33 32 32 31 31 31 31
40 40 40 39 39 40 40 39 38 38 38 38 38 38 37 37 37 38 37 38 38 38 37 37 36 35 36 36 37 34 34 34 34 33 33 33 33 33
41 40 39 40 40 40 40 39 39 40 40 39 39 39 39 39 39 39 40 39 40 39 39 38 38 39 40 40 39 37 35 34 35 34 33 34 34 35
40 41 41 41 40 39 39 40 40 40 40 41 42 42 42 41 41 40 40 40 41 41 41 41 42 42 42 41 40 39 38 36 36 36 38 37 37 38
40 40 41 41 41 41 41 41 41 41 41 41 42 42 42 42 42 42 42 42 43 43 43 42 43 43 43 42 41 40 40 40 39 40 40 41 40 41
40 41 42 42 42 42 42 42 41 41 42 42 42 42 43 43 43 43 43 44 44 44 44 43 44 44 44 43 43 43 43 43 42 43 42 43 44 44
38 39 38 38 40 42 43 44 44 44 44 43 43 44 44 44 44 44 43 44 45 45 45 45 44 43 43 44 44 45 45 44 44 45 46 46 46 45
40 39 39 40 40 42 43 44 44 45 44 44 44 45 46 46 46 46 46 46 47 47 47 46 45 45 45 45 46 47 46 47 47 48 47 47 48 49
41 41 42 43 43 44 44 45 46 47 48 48 48 49 49 49 49 49 49 50 50 49 48 48 48 48 49 50 51 51 50 51 50 49 47 47 47 47
44 45 45 46 47 46 46 47 48 48 50 51 51 51 51 52 52 52 53 53 53 53 52 52 52 52 52 53 54 53 52 51 50 51 50 49 47 46
46 46 46 46 47 48 48 49 49 50 50 51 51 51 51 52 53 53 53 53 54 55 55 55 54 54 54 54 55 55 54 52 51 50 49 48 49 50
Wind_Direction
228 228 229 228 228 229 229 229 229 230 234 239 245 252 261 276 293 306 317 322 323 322 323 325 324 323 323 322 322 323 322 318 316 316 318 321 321 318
227 227 227 228 229 230 231 231 232 232 235 239 248 257 263 274 285 297 309 315 319 318 318 319 319 318 318 316 315 315 316 314 311 310 311 313 315 312
226 226 227 228 229 231 233 233 234 234 237 244 251 257 266 273 281 289 300 307 313 315 314 314 314 314 313 312 310 310 309 308 306 305 305 306 309 306
225 227 228 228 231 233 234 234 235 237 240 244 252 258 265 271 277 285 293 299 307 309 311 311 311 311 311 310 309 308 307 304 302 301 301 300 302 302
226 227 229 230 232 234 235 235 236 238 242 246 253 259 265 272 276 282 288 294 301 304 306 307 307 307 308 308 307 306 306 304 300 298 296 296 295 297
227 228 229 230 233 234 235 236 238 240 243 247 253 259 264 270 275 280 285 290 295 299 301 303 303 303 304 304 305 306 305 304 300 296 293 292 290 293
226 228 230 233 234 236 237 238 239 241 244 249 254 258 263 269 273 278 281 287 292 295 298 300 301 302 302 302 303 303 303 302 300 298 293 290 287 289
227 230 232 234 236 238 239 240 241 243 246 250 254 258 263 268 271 275 279 284 288 291 293 295 298 300 300 300 301 301 301 300 298 296 293 290 286 286
228 231 235 237 237 239 240 242 243 245 248 252 254 258 263 266 270 274 277 281 285 288 290 292 295 296 297 299 300 299 299 297 295 296 292 289 287 286
232 234 235 237 239 239 241 243 245 248 250 253 255 258 260 263 268 272 276 280 283 286 288 290 293 295 296 297 298 298 296 294 294 293 290 288 287 286
233 235 236 239 239 240 243 245 247 249 251 253 254 256 259 262 266 270 274 278 281 283 286 288 291 293 295 296 297 296 296 295 295 292 290 287 286 285
234 236 239 239 242 242 244 246 249 251 252 253 255 256 258 261 265 268 272 276 279 283 285 286 289 293 294 294 295 294 295 294 294 292 288 287 285 284
235 237 238 240 242 244 245 247 249 250 251 252 254 256 258 261 264 267 271 274 277 279 283 284 286 289 289 292 294 293 293 292 293 291 289 286 285 284
235 239 241 242 243 244 246 246 249 249 252 253 254 256 258 261 264 267 270 273 275 277 281 282 283 285 287 290 292 292 291 290 289 289 287 286 284 283
238 241 243 243 242 244 246 247 249 251 251 253 255 257 260 263 265 267 270 272 274 277 279 280 281 284 286 287 288 289 290 289 288 287 286 285 284 283
240 241 243 244 243 244 245 246 249 251 252 255 257 259 261 263 265 267 269 271 273 276 277 278 280 282 284 284 285 286 287 287 286 285 285 285 283 283
241 242 242 243 243 245 246 248 250 252 254 256 259 260 262 263 265 267 268 270 272 275 277 278 280 281 281 282 282 283 284 285 285 285 285 284 283 283
243 244 245 246 245 246 248 250 250 253 255 258 260 261 263 264 266 267 269 270 272 275 277 278 279 279 280 279 278 281 282 284 284 284 285 284 284 284
244 245 241 243 245 247 250 250 252 254 258 259 260 261 264 265 266 268 269 270 272 275 276 277 277 277 277 278 280 278 281 283 284 284 283 282 282 284
245 244 244 246 248 250 251 253 253 255 257 259 261 263 264 265 266 268 269 271 273 274 275 275 275 275 276 278 280 281 279 282 283 283 282 282 282 283
246 248 248 250 252 252 252 254 255 256 258 261 262 264 265 266 267 268 270 271 273 274 274 274 274 275 276 278 279 280 281 280 280 281 282 282 282 283
250 252 252 253 254 254 254 256 257 259 260 262 264 265 265 266 267 268 270 271 272 273 273 274 275 275 276 276 278 280 280 280 280 279 278 279 280 282
251 252 253 253 254 255 256 258 258 260 261 262 263 264 265 267 268 269 270 270 272 272 273 275 275 275 275 275 277 278 279 279 279 279 278 278 277 278